| time (UTC) | temp F | wind direction | speed knots | gust knots | rain 1hr in | rain 24hr in | rain mn in | humidity % | barometer mb |
| 20260901030420 | 86 | 177 | 1.7 | 5.2 | 0.00 | 0.12 | 0.12 | 47 | 1011.3 |
| 20260901025520 | 86 | 197 | 0.9 | 3.5 | 0.00 | 0.12 | 0.12 | 47 | 1011.3 |
| 20260901024620 | 85 | 228 | 0.0 | 1.7 | 0.00 | 0.12 | 0.12 | 48 | 1011.1 |
| 20260901023720 | 85 | 229 | 0.0 | 0.9 | 0.00 | 0.12 | 0.12 | 47 | 1011.1 |
| 20260901022820 | 86 | 229 | 0.9 | 1.7 | 0.00 | 0.12 | 0.12 | 47 | 1011.1 |
| 20260901021020 | 86 | 227 | 0.0 | 2.6 | 0.00 | 0.12 | 0.12 | 47 | 1010.9 |
| 20260901020120 | 86 | 0 | 0.0 | 0.0 | 0.00 | 0.12 | 0.12 | 46 | 1010.6 |
| 20260901014320 | 86 | 181 | 0.0 | 1.7 | 0.00 | 0.12 | 0.12 | 45 | 1010.7 |
| 20260901013420 | 86 | 181 | 0.0 | 1.7 | 0.00 | 0.12 | 0.12 | 46 | 1010.6 |
| 20260901012520 | 87 | 181 | 0.9 | 2.6 | 0.00 | 0.12 | 0.12 | 46 | 1010.5 |
| 20260901010720 | 88 | 189 | 0.9 | 4.3 | 0.00 | 0.12 | 0.12 | 45 | 1010.8 |
| 20260901005820 | 87 | 131 | 0.9 | 2.6 | 0.00 | 0.12 | 0.12 | 46 | 1010.8 |
| 20260901004920 | 88 | 122 | 0.9 | 7.0 | 0.00 | 0.12 | 0.12 | 44 | 1010.8 |
| 20260901004020 | 88 | 148 | 1.7 | 5.2 | 0.00 | 0.12 | 0.12 | 44 | 1010.8 |
| 20260901003120 | 88 | 134 | 1.7 | 5.2 | 0.00 | 0.12 | 0.12 | 44 | 1010.9 |
| 20260901000420 | 88 | 109 | 2.6 | 6.1 | 0.00 | 0.12 | 0.12 | 43 | 1011.2 |
| 20260831235519 | 89 | 110 | 2.6 | 7.0 | 0.00 | 0.12 | 0.12 | 42 | 1011.1 |
| 20260831234619 | 89 | 103 | 2.6 | 6.1 | 0.00 | 0.12 | 0.12 | 45 | 1011.2 |
| 20260831233719 | 89 | 115 | 2.6 | 7.0 | 0.00 | 0.12 | 0.12 | 46 | 1011.4 |
| 20260831232819 | 89 | 135 | 3.5 | 6.1 | 0.00 | 0.12 | 0.12 | 46 | 1011.3 |
| 20260831230120 | 88 | 123 | 4.3 | 10.4 | 0.00 | 0.12 | 0.12 | 48 | 1011.4 |
| 20260831225219 | 88 | 124 | 4.3 | 9.6 | 0.00 | 0.12 | 0.12 | 48 | 1011.7 |
| 20260831224320 | 89 | 132 | 4.3 | 10.4 | 0.00 | 0.12 | 0.12 | 48 | 1011.7 |
| 20260831223420 | 88 | 104 | 4.3 | 10.4 | 0.00 | 0.12 | 0.12 | 48 | 1011.7 |
| 20260831222520 | 88 | 105 | 3.5 | 10.4 | 0.00 | 0.12 | 0.12 | 49 | 1011.9 |
| 20260831221619 | 88 | 130 | 3.5 | 8.7 | 0.00 | 0.12 | 0.12 | 52 | 1012.1 |
| 20260831220719 | 88 | 110 | 4.3 | 8.7 | 0.00 | 0.12 | 0.12 | 52 | 1012.5 |
| 20260831215819 | 88 | 130 | 4.3 | 10.4 | 0.00 | 0.12 | 0.12 | 52 | 1012.9 |
| 20260831214020 | 87 | 118 | 4.3 | 12.2 | 0.00 | 0.12 | 0.12 | 52 | 1013.4 |
| 20260831213119 | 87 | 130 | 3.5 | 7.8 | 0.00 | 0.12 | 0.12 | 52 | 1013.6 |
| 20260831212219 | 87 | 117 | 4.3 | 9.6 | 0.00 | 0.12 | 0.12 | 52 | 1013.7 |
| 20260831211319 | 86 | 106 | 5.2 | 12.2 | 0.00 | 0.12 | 0.12 | 54 | 1013.9 |
| 20260831205519 | 86 | 122 | 5.2 | 10.4 | 0.00 | 0.12 | 0.12 | 54 | 1014.2 |
| 20260831204619 | 85 | 109 | 6.1 | 12.2 | 0.00 | 0.12 | 0.12 | 55 | 1014.4 |
| 20260831202819 | 85 | 139 | 5.2 | 15.6 | 0.00 | 0.12 | 0.12 | 59 | 1014.6 |
| 20260831201919 | 85 | 143 | 4.3 | 13.0 | 0.00 | 0.12 | 0.12 | 60 | 1014.7 |
| 20260831201019 | 83 | 119 | 5.2 | 10.4 | 0.00 | 0.12 | 0.12 | 62 | 1014.6 |
| 20260831200119 | 82 | 133 | 5.2 | 12.2 | 0.00 | 0.12 | 0.12 | 65 | 1014.7 |
| 20260831195219 | 81 | 140 | 4.3 | 12.2 | 0.00 | 0.12 | 0.12 | 65 | 1014.7 |
| 20260831194319 | 81 | 139 | 3.5 | 12.2 | 0.00 | 0.12 | 0.12 | 65 | 1014.6 |
| 20260831193419 | 81 | 131 | 4.3 | 10.4 | 0.00 | 0.12 | 0.12 | 67 | 1014.8 |
| 20260831191619 | 80 | 112 | 3.5 | 12.2 | 0.00 | 0.12 | 0.12 | 71 | 1015.0 |
| 20260831190719 | 80 | 124 | 3.5 | 8.7 | 0.00 | 0.12 | 0.12 | 71 | 1014.9 |
| 20260831185819 | 80 | 144 | 3.5 | 9.6 | 0.00 | 0.12 | 0.12 | 70 | 1015.0 |
| 20260831184919 | 79 | 154 | 4.3 | 8.7 | 0.00 | 0.12 | 0.12 | 70 | 1015.3 |
| 20260831183119 | 79 | 153 | 4.3 | 9.6 | 0.00 | 0.12 | 0.12 | 75 | 1014.9 |
| 20260831182219 | 79 | 149 | 2.6 | 11.3 | 0.00 | 0.12 | 0.12 | 76 | 1014.8 |
| 20260831181319 | 79 | 123 | 3.5 | 7.8 | 0.00 | 0.12 | 0.12 | 78 | 1014.9 |
| 20260831180419 | 78 | 104 | 3.5 | 7.8 | 0.00 | 0.12 | 0.12 | 82 | 1015.0 |
| 20260831175519 | 78 | 96 | 3.5 | 5.2 | 0.00 | 0.12 | 0.12 | 84 | 1015.3 |
| 20260831174619 | 77 | 86 | 4.3 | 7.8 | 0.00 | 0.12 | 0.12 | 84 | 1015.5 |
| 20260831173719 | 77 | 75 | 2.6 | 7.8 | 0.00 | 0.12 | 0.12 | 84 | 1015.6 |
| 20260831172819 | 77 | 60 | 2.6 | 7.0 | 0.00 | 0.12 | 0.12 | 84 | 1015.9 |
| 20260831171919 | 77 | 67 | 3.5 | 7.0 | 0.00 | 0.12 | 0.12 | 84 | 1015.6 |
| 20260831171019 | 76 | 70 | 3.5 | 6.1 | 0.01 | 0.12 | 0.12 | 84 | 1015.3 |
| 20260831170119 | 76 | 78 | 4.3 | 7.8 | 0.02 | 0.12 | 0.12 | 84 | 1015.2 |
| 20260831165219 | 75 | 90 | 5.2 | 9.6 | 0.03 | 0.12 | 0.12 | 85 | 1015.3 |
| 20260831164319 | 76 | 80 | 4.3 | 8.7 | 0.05 | 0.12 | 0.12 | 85 | 1015.3 |
| 20260831162519 | 75 | 63 | 4.3 | 10.4 | 0.09 | 0.12 | 0.12 | 85 | 1015.1 |
| 20260831161619 | 75 | 65 | 4.3 | 8.7 | 0.10 | 0.12 | 0.12 | 85 | 1015.1 |
| 20260831160719 | 75 | 60 | 5.2 | 9.6 | 0.10 | 0.11 | 0.11 | 85 | 1015.1 |
| 20260831155819 | 75 | 85 | 7.0 | 11.3 | 0.09 | 0.10 | 0.10 | 85 | 1015.0 |
| 20260831154919 | 75 | 89 | 5.2 | 11.3 | 0.07 | 0.08 | 0.08 | 84 | 1014.8 |
| 20260831154019 | 76 | 88 | 3.5 | 7.8 | 0.05 | 0.06 | 0.06 | 84 | 1015.2 |
| 20260831153119 | 76 | 102 | 2.6 | 7.0 | 0.03 | 0.04 | 0.04 | 83 | 1015.4 |
| 20260831152219 | 76 | 125 | 0.9 | 6.1 | 0.02 | 0.02 | 0.03 | 81 | 1015.4 |
| 20260831151319 | 76 | 131 | 2.6 | 6.1 | 0.01 | 0.01 | 0.01 | 79 | 1015.5 |
| 20260831150419 | 76 | 121 | 4.3 | 10.4 | 0.01 | 0.01 | 0.01 | 78 | 1015.2 |
| 20260831145519 | 76 | 123 | 4.3 | 10.4 | 0.01 | 0.01 | 0.01 | 79 | 1015.0 |
| 20260831144619 | 77 | 123 | 2.6 | 10.4 | 0.01 | 0.01 | 0.01 | 79 | 1014.7 |
| 20260831143719 | 77 | 125 | 3.5 | 8.7 | 0.01 | 0.01 | 0.01 | 78 | 1014.7 |
| 20260831142819 | 78 | 118 | 5.2 | 9.6 | 0.00 | 0.00 | 0.00 | 76 | 1014.5 |
| 20260831141919 | 79 | 113 | 7.0 | 11.3 | 0.00 | 0.00 | 0.00 | 71 | 1014.2 |
| 20260831141019 | 79 | 108 | 7.8 | 13.0 | 0.00 | 0.00 | 0.00 | 69 | 1014.1 |
| 20260831140119 | 80 | 103 | 7.8 | 16.5 | 0.00 | 0.00 | 0.00 | 68 | 1013.6 |
| 20260831135219 | 81 | 103 | 7.0 | 14.8 | 0.00 | 0.00 | 0.00 | 66 | 1013.2 |
| 20260831134319 | 81 | 105 | 5.2 | 14.8 | 0.00 | 0.00 | 0.00 | 63 | 1013.1 |
| 20260831133419 | 82 | 106 | 1.7 | 9.6 | 0.00 | 0.00 | 0.00 | 61 | 1012.7 |
| 20260831132519 | 81 | 136 | 1.7 | 4.3 | 0.00 | 0.00 | 0.00 | 62 | 1012.7 |
| 20260831131619 | 81 | 148 | 2.6 | 7.8 | 0.00 | 0.00 | 0.00 | 63 | 1012.4 |
| 20260831130719 | 81 | 155 | 2.6 | 8.7 | 0.00 | 0.00 | 0.00 | 64 | 1012.1 |
| 20260831125819 | 81 | 155 | 3.5 | 7.8 | 0.00 | 0.00 | 0.00 | 64 | 1012.1 |
| 20260831124919 | 81 | 158 | 2.6 | 10.4 | 0.00 | 0.00 | 0.00 | 64 | 1012.0 |
| 20260831124018 | 81 | 166 | 3.5 | 7.8 | 0.00 | 0.00 | 0.00 | 63 | 1012.0 |
| 20260831123118 | 81 | 154 | 2.6 | 7.8 | 0.00 | 0.00 | 0.00 | 63 | 1011.8 |
| 20260831122219 | 81 | 163 | 1.7 | 5.2 | 0.00 | 0.00 | 0.00 | 63 | 1011.6 |
| 20260831121318 | 81 | 193 | 2.6 | 7.8 | 0.00 | 0.00 | 0.00 | 64 | 1011.5 |
| 20260831120418 | 82 | 171 | 0.9 | 7.8 | 0.00 | 0.00 | 0.00 | 62 | 1011.3 |
| 20260831114619 | 81 | 38 | 0.0 | 1.7 | 0.00 | 0.00 | 0.00 | 59 | 1010.9 |
| 20260831113718 | 81 | 38 | 0.9 | 1.7 | 0.00 | 0.00 | 0.00 | 60 | 1010.8 |
| 20260831112818 | 81 | 45 | 1.7 | 5.2 | 0.00 | 0.00 | 0.00 | 59 | 1010.8 |
| 20260831111919 | 81 | 46 | 2.6 | 5.2 | 0.00 | 0.00 | 0.00 | 59 | 1010.8 |
| 20260831111019 | 81 | 57 | 3.5 | 9.6 | 0.00 | 0.00 | 0.00 | 59 | 1010.8 |
| 20260831110119 | 82 | 61 | 3.5 | 9.6 | 0.00 | 0.00 | 0.00 | 58 | 1010.7 |
| 20260831105219 | 82 | 57 | 2.6 | 10.4 | 0.00 | 0.00 | 0.00 | 58 | 1010.5 |
| 20260831104318 | 81 | 61 | 3.5 | 7.8 | 0.00 | 0.00 | 0.00 | 58 | 1010.3 |
| 20260831103419 | 81 | 49 | 3.5 | 7.8 | 0.00 | 0.00 | 0.00 | 59 | 1009.9 |
| 20260831102518 | 81 | 44 | 4.3 | 11.3 | 0.00 | 0.00 | 0.00 | 60 | 1009.7 |
| 20260831101618 | 81 | 55 | 3.5 | 11.3 | 0.00 | 0.00 | 0.00 | 60 | 1009.6 |
| 20260831100719 | 81 | 68 | 2.6 | 7.0 | 0.00 | 0.00 | 0.00 | 59 | 1009.9 |
| 20260831094918 | 81 | 71 | 5.2 | 12.2 | 0.00 | 0.00 | 0.00 | 58 | 1009.7 |
| 20260831094018 | 81 | 67 | 6.1 | 11.3 | 0.00 | 0.00 | 0.00 | 57 | 1009.8 |
| 20260831092218 | 80 | 75 | 7.0 | 15.6 | 0.00 | 0.00 | 0.00 | 60 | 1010.1 |
| 20260831091318 | 80 | 82 | 9.6 | 16.5 | 0.00 | 0.00 | 0.00 | 62 | 1010.1 |
| 20260831090418 | 80 | 78 | 8.7 | 17.4 | 0.00 | 0.00 | 0.00 | 63 | 1010.3 |
| 20260831085518 | 80 | 71 | 8.7 | 15.6 | 0.00 | 0.00 | 0.00 | 64 | 1010.5 |
| 20260831084618 | 80 | 69 | 7.8 | 14.8 | 0.00 | 0.00 | 0.00 | 65 | 1010.3 |
| 20260831083718 | 80 | 76 | 7.8 | 14.8 | 0.00 | 0.00 | 0.00 | 65 | 1010.5 |
| 20260831081918 | 81 | 61 | 5.2 | 12.2 | 0.00 | 0.00 | 0.00 | 63 | 1010.6 |
| 20260831081018 | 81 | 60 | 4.3 | 10.4 | 0.00 | 0.00 | 0.00 | 64 | 1010.8 |
| 20260831080118 | 81 | 49 | 3.5 | 10.4 | 0.00 | 0.00 | 0.00 | 65 | 1010.7 |
| 20260831075218 | 81 | 24 | 4.3 | 7.8 | 0.00 | 0.00 | 0.00 | 67 | 1010.9 |
| 20260831074318 | 81 | 341 | 6.1 | 12.2 | 0.00 | 0.00 | 0.00 | 67 | 1010.9 |
| 20260831073418 | 80 | 337 | 4.3 | 12.2 | 0.00 | 0.00 | 0.00 | 69 | 1010.8 |
| 20260831072518 | 80 | 357 | 5.2 | 13.0 | 0.00 | 0.00 | 0.00 | 69 | 1011.1 |
| 20260831070718 | 82 | 30 | 7.8 | 15.6 | 0.00 | 0.00 | 0.00 | 68 | 1010.5 |
| 20260831065818 | 82 | 354 | 8.7 | 19.1 | 0.00 | 0.00 | 0.00 | 67 | 1010.5 |
| 20260831064918 | 82 | 345 | 8.7 | 17.4 | 0.00 | 0.00 | 0.00 | 67 | 1009.9 |
| 20260831064018 | 82 | 339 | 7.8 | 21.7 | 0.00 | 0.00 | 0.00 | 68 | 1009.8 |
| 20260831063118 | 82 | 349 | 9.6 | 18.2 | 0.00 | 0.00 | 0.00 | 68 | 1009.7 |
| 20260831062218 | 82 | 346 | 8.7 | 18.2 | 0.00 | 0.00 | 0.00 | 65 | 1009.6 |
| 20260831061318 | 83 | 347 | 7.0 | 19.1 | 0.00 | 0.00 | 0.00 | 61 | 1009.8 |
| 20260831060418 | 83 | 358 | 5.2 | 17.4 | 0.00 | 0.00 | 0.00 | 62 | 1009.9 |
| 20260831054618 | 85 | 271 | 2.6 | 8.7 | 0.00 | 0.00 | 0.00 | 60 | 1009.1 |
| 20260831052818 | 83 | 253 | 6.1 | 12.2 | 0.00 | 0.00 | 0.00 | 64 | 1008.9 |
| 20260831051018 | 82 | 229 | 6.1 | 18.2 | 0.00 | 0.00 | 0.00 | 65 | 1009.6 |
| 20260831045218 | 85 | 213 | 7.0 | 17.4 | 0.00 | 0.00 | 0.00 | 56 | 1010.0 |
| 20260831044318 | 86 | 198 | 9.6 | 18.2 | 0.00 | 0.00 | 0.00 | 55 | 1009.7 |
| 20260831043418 | 87 | 201 | 8.7 | 22.6 | 0.00 | 0.00 | 0.00 | 52 | 1009.3 |
| 20260831041618 | 89 | 202 | 7.8 | 18.2 | 0.00 | 0.00 | 0.00 | 46 | 1009.0 |
| 20260831040718 | 91 | 201 | 6.1 | 19.1 | 0.00 | 0.00 | 0.00 | 46 | 1008.9 |
| 20260831035818 | 92 | 201 | 7.0 | 19.1 | 0.00 | 0.00 | 0.00 | 45 | 1008.6 |
| 20260831034918 | 94 | 206 | 6.1 | 17.4 | 0.00 | 0.00 | 0.00 | 41 | 1008.6 |
| 20260831033118 | 100 | 306 | 0.9 | 4.3 | 0.00 | 0.00 | 0.00 | 32 | 1007.6 |
| 20260831032218 | 100 | 344 | 0.9 | 3.5 | 0.00 | 0.00 | 0.00 | 32 | 1007.5 |
| 20260831031318 | 100 | 341 | 0.9 | 2.6 | 0.00 | 0.00 | 0.00 | 32 | 1007.4 |